FW6253 Weather Reports


time (UTC)temp
C
wind
direction
speed
KPH
gust
KPH
rain 1hr
cm
rain 24hr
cm
rain mn
cm
humidity
%
barometer
mb
20260510083059 21 171 0.0 4.8 0.00 0.00 0.00 83 1011.0
20260510082553 21 0 0.0 4.8 0.00 0.00 0.00 83 1010.9
20260510082052 21 178 0.0 3.2 0.00 0.00 0.00 83 1010.9
20260510081600 21 0 0.0 0.0 0.00 0.00 0.00 83 1010.9
20260510081052 21 0 0.0 0.0 0.00 0.00 0.00 83 1010.9
20260510080552 21 0 0.0 0.0 0.00 0.00 0.00 83 1010.9
20260510080105 21 0 0.0 0.0 0.00 0.00 0.00 82 1010.8
20260510075551 21 0 0.0 4.8 0.00 0.00 0.00 82 1010.8
20260510075051 22 0 0.0 4.8 0.00 0.00 0.00 82 1010.8
20260510074600 22 0 0.0 4.8 0.00 0.00 0.00 81 1010.9
20260510074052 22 0 0.0 1.6 0.00 0.00 0.00 81 1010.9
20260510073553 22 0 0.0 3.2 0.00 0.00 0.00 80 1010.9
20260510073116 22 0 0.0 6.4 0.00 0.00 0.00 80 1010.8
20260510072553 22 0 0.0 6.4 0.00 0.00 0.00 79 1011.0
20260510072053 22 174 0.0 6.4 0.00 0.00 0.00 79 1010.9
20260510071606 22 167 0.0 9.7 0.00 0.00 0.00 79 1010.9
20260510071052 22 173 3.2 9.7 0.00 0.00 0.00 79 1011.0
20260510070554 23 178 1.6 8.0 0.00 0.00 0.00 78 1011.0
20260510065552 23 0 0.0 8.0 0.00 0.00 0.00 78 1011.0
20260510065051 23 173 1.6 8.0 0.00 0.00 0.00 77 1011.0
20260510064637 23 167 0.0 9.7 0.00 0.00 0.00 77 1011.0
20260510064051 23 163 0.0 12.9 0.00 0.00 0.00 77 1011.0
20260510063553 23 167 3.2 12.9 0.00 0.00 0.00 77 1011.0
20260510063111 23 163 1.6 9.7 0.00 0.00 0.00 77 1011.0
20260510062552 23 192 3.2 11.3 0.00 0.00 0.00 76 1011.0
20260510062053 23 185 4.8 11.3 0.00 0.00 0.00 76 1011.0
20260510061609 23 186 4.8 11.3 0.00 0.00 0.00 76 1011.2
20260510061052 23 167 3.2 8.0 0.00 0.00 0.00 77 1011.1
20260510060554 23 161 1.6 8.0 0.00 0.00 0.00 77 1011.1
20260510060059 23 0 0.0 8.0 0.00 0.00 0.00 76 1011.2
20260510055552 23 155 0.0 6.4 0.00 0.00 0.00 76 1011.1
20260510055052 23 167 0.0 8.0 0.00 0.00 0.00 76 1011.1
20260510054556 23 165 0.0 8.0 0.00 0.00 0.00 76 1011.0
20260510054052 24 0 0.0 8.0 0.00 0.00 0.00 75 1011.0
20260510053553 24 105 0.0 8.0 0.00 0.00 0.00 75 1011.0
20260510053054 24 153 1.6 11.3 0.00 0.00 0.00 75 1011.0
20260510052552 24 163 1.6 11.3 0.00 0.00 0.00 75 1010.9
20260510052052 24 165 0.0 11.3 0.00 0.00 0.00 75 1010.9
20260510051557 24 161 3.2 11.3 0.00 0.00 0.00 75 1010.7
20260510051054 24 167 4.8 11.3 0.00 0.00 0.00 75 1010.7
20260510050552 24 168 3.2 11.3 0.00 0.00 0.00 75 1010.8
20260510050055 24 169 3.2 11.3 0.00 0.00 0.00 76 1010.8
20260510045552 24 123 0.0 4.8 0.00 0.00 0.00 76 1010.7
20260510045052 24 105 0.0 4.8 0.00 0.00 0.00 76 1010.7
20260510044551 24 0 0.0 6.4 0.00 0.00 0.00 76 1010.6
20260510044054 24 0 1.6 8.0 0.00 0.00 0.00 76 1010.7
20260510043552 24 146 0.0 8.0 0.00 0.00 0.00 76 1010.7
20260510043053 24 0 1.6 6.4 0.00 0.00 0.00 77 1010.6
20260510042552 24 0 0.0 3.2 0.00 0.00 0.00 77 1010.7
20260510042053 24 0 0.0 3.2 0.00 0.00 0.00 77 1010.6
20260510041553 24 78 0.0 1.6 0.00 0.00 0.00 77 1010.5
20260510041052 23 0 0.0 0.0 0.00 0.00 0.00 78 1010.4
20260510040551 23 0 0.0 0.0 0.00 0.00 0.00 78 1010.3
20260510040053 23 0 0.0 0.0 0.00 0.00 0.00 78 1010.4
20260510035553 23 0 0.0 0.0 0.00 0.00 0.00 79 1010.3
20260510035053 23 0 0.0 0.0 0.00 0.00 0.00 79 1010.3
20260510034612 23 0 0.0 0.0 0.00 0.00 0.00 78 1010.3
20260510034053 24 0 0.0 0.0 0.00 0.00 0.00 77 1010.2
20260510033553 24 0 0.0 0.0 0.00 0.00 0.00 76 1010.1
20260510033058 24 0 0.0 0.0 0.00 0.00 0.00 76 1010.2
20260510032551 25 0 0.0 0.0 0.00 0.00 0.00 76 1010.1
20260510032053 25 0 0.0 0.0 0.00 0.00 0.00 76 1010.2
20260510031551 25 0 0.0 0.0 0.00 0.00 0.00 76 1010.2
20260510031052 24 0 0.0 0.0 0.00 0.00 0.00 76 1010.1
20260510030553 24 0 0.0 0.0 0.00 0.00 0.00 76 1010.0
20260510030105 24 0 0.0 0.0 0.00 0.00 0.00 76 1010.0
20260510025551 25 0 0.0 0.0 0.00 0.00 0.00 75 1010.0
20260510025052 25 0 0.0 0.0 0.00 0.00 0.00 75 1010.0
20260510024559 25 0 0.0 1.6 0.00 0.00 0.00 75 1009.9
20260510024053 25 0 0.0 3.2 0.00 0.00 0.00 75 1009.8
20260510023552 25 0 0.0 3.2 0.00 0.00 0.00 74 1009.8
20260510023054 25 0 0.0 4.8 0.00 0.00 0.00 74 1009.7
20260510022554 25 0 0.0 4.8 0.00 0.00 0.00 73 1009.7
20260510022052 25 78 0.0 3.2 0.00 0.00 0.00 73 1009.7
20260510021602 25 0 0.0 3.2 0.00 0.00 0.00 72 1009.7
20260510021052 25 0 0.0 1.6 0.00 0.00 0.00 72 1009.6
20260510020551 25 0 0.0 3.2 0.00 0.00 0.00 72 1009.5
20260510020056 25 0 0.0 3.2 0.00 0.00 0.00 72 1009.5
20260510015552 25 0 0.0 1.6 0.00 0.00 0.00 71 1009.3
20260510015053 26 0 0.0 3.2 0.00 0.00 0.00 71 1009.2
20260510014607 26 0 0.0 4.8 0.00 0.00 0.00 71 1009.2
20260510014051 26 0 0.0 4.8 0.00 0.00 0.00 70 1009.1
20260510013556 26 0 0.0 3.2 0.00 0.00 0.00 70 1008.9
20260510013123 26 81 0.0 4.8 0.00 0.00 0.00 70 1008.9
20260510012553 26 80 0.0 4.8 0.00 0.00 0.00 69 1008.8
20260510012053 26 80 1.6 6.4 0.00 0.00 0.00 68 1008.7
20260510011554 26 84 0.0 6.4 0.00 0.00 0.00 67 1008.7
20260510011052 26 86 1.6 6.4 0.00 0.00 0.00 66 1008.6
20260510010551 27 71 0.0 6.4 0.00 0.00 0.00 65 1008.6
20260510010057 27 67 1.6 8.0 0.00 0.00 0.00 64 1008.4
20260510005553 27 70 1.6 8.0 0.00 0.00 0.00 62 1008.3
20260510005054 27 90 1.6 12.9 0.00 0.00 0.00 62 1008.3
20260510004557 27 89 1.6 12.9 0.00 0.00 0.00 61 1008.2
20260510004052 27 94 3.2 12.9 0.00 0.00 0.00 60 1008.2
20260510003554 27 103 3.2 9.7 0.00 0.00 0.00 60 1008.2
20260510003107 27 80 1.6 8.0 0.00 0.00 0.00 62 1008.1
20260510002556 28 101 1.6 6.4 0.00 0.00 0.00 65 1008.0
20260510002056 28 84 3.2 6.4 0.00 0.00 0.00 65 1007.9
20260510001554 27 111 0.0 3.2 0.00 0.00 0.00 66 1007.9
20260510001052 27 0 0.0 1.6 0.00 0.00 0.00 66 1007.8
20260510000554 28 0 0.0 3.2 0.00 0.00 0.00 65 1007.8
20260510000118 28 0 0.0 3.2 0.00 0.00 0.00 64 1007.8
20260509235553 28 0 0.0 0.0 0.00 0.00 0.00 64 1007.8
20260509235051 28 0 0.0 3.2 0.00 0.00 0.00 63 1007.6
20260509234556 28 0 0.0 3.2 0.00 0.00 0.00 62 1007.4
20260509234053 28 0 0.0 3.2 0.00 0.00 0.00 61 1007.4
20260509233553 28 0 0.0 6.4 0.00 0.00 0.00 61 1007.4
20260509233056 28 128 1.6 8.0 0.00 0.00 0.00 61 1007.7
20260509232553 28 173 1.6 14.5 0.00 0.00 0.00 61 1007.9
20260509232053 29 161 3.2 14.5 0.00 0.00 0.00 59 1007.9
20260509231601 30 159 0.0 6.4 0.00 0.00 0.00 59 1008.0
20260509231052 30 169 0.0 4.8 0.00 0.00 0.00 58 1007.9
20260509230553 30 192 0.0 4.8 0.00 0.00 0.00 56 1007.9
20260509230108 30 192 1.6 4.8 0.00 0.00 0.00 56 1008.0
20260509225552 30 0 0.0 4.8 0.00 0.00 0.00 57 1007.9
20260509225053 31 191 1.6 8.0 0.00 0.00 0.00 57 1007.8
20260509224556 31 187 0.0 8.0 0.00 0.00 0.00 56 1007.8
20260509224053 31 0 3.2 8.0 0.00 0.00 0.00 54 1007.8
20260509223553 31 171 1.6 6.4 0.00 0.00 0.00 53 1007.9
20260509223100 32 194 1.6 8.0 0.00 0.00 0.00 52 1007.8
20260509222552 32 194 1.6 9.7 0.00 0.00 0.00 54 1007.7
20260509222052 32 177 3.2 9.7 0.00 0.00 0.00 51 1007.7
20260509221607 32 247 1.6 9.7 0.00 0.00 0.00 53 1007.7
20260509221053 32 192 3.2 11.3 0.00 0.00 0.00 53 1007.7
20260509220551 32 162 4.8 14.5 0.00 0.00 0.00 54 1007.8
20260509220054 32 159 3.2 14.5 0.00 0.00 0.00 55 1007.8
20260509215553 32 118 3.2 19.3 0.00 0.00 0.00 54 1007.8
20260509215058 32 211 4.8 19.3 0.00 0.00 0.00 54 1007.8
20260509214601 32 182 1.6 8.0 0.00 0.00 0.00 53 1007.9
20260509214051 32 182 1.6 8.0 0.00 0.00 0.00 53 1007.9
20260509213551 31 163 0.0 9.7 0.00 0.00 0.00 54 1007.9
20260509213057 32 159 1.6 9.7 0.00 0.00 0.00 53 1008.0
20260509212552 32 152 3.2 9.7 0.00 0.00 0.00 54 1007.9
20260509212055 32 163 1.6 9.7 0.00 0.00 0.00 55 1007.9
20260509211554 32 160 0.0 9.7 0.00 0.00 0.00 54 1007.9
20260509211053 31 236 1.6 9.7 0.00 0.00 0.00 55 1008.1
20260509210553 31 249 3.2 8.0 0.00 0.00 0.00 54 1008.1
20260509210058 32 143 1.6 9.7 0.00 0.00 0.00 53 1008.3
20260509205552 32 154 3.2 17.7 0.00 0.00 0.00 52 1008.4
20260509205051 32 161 3.2 17.7 0.00 0.00 0.00 51 1008.4
20260509204555 32 183 3.2 14.5 0.00 0.00 0.00 54 1008.4
20260509204052 32 178 1.6 16.1 0.00 0.00 0.00 54 1008.5
20260509203557 32 193 3.2 16.1 0.00 0.00 0.00 55 1008.6
20260509203100 32 216 4.8 16.1 0.00 0.00 0.00 53 1008.6
20260509202553 32 233 4.8 14.5 0.00 0.00 0.00 52 1008.7
20260509202053 32 190 4.8 20.9 0.00 0.00 0.00 54 1008.7
20260509201556 32 209 3.2 20.9 0.00 0.00 0.00 56 1008.8
20260509201057 31 219 6.4 16.1 0.00 0.00 0.00 55 1008.9
20260509200553 31 109 3.2 14.5 0.00 0.00 0.00 56 1008.9
20260509200109 32 244 3.2 14.5 0.00 0.00 0.00 56 1009.1
20260509195556 31 206 4.8 14.5 0.00 0.00 0.00 57 1009.2
20260509195052 31 171 3.2 14.5 0.00 0.00 0.00 56 1009.4
20260509194557 32 169 3.2 12.9 0.00 0.00 0.00 57 1009.5
20260509194053 31 174 3.2 14.5 0.00 0.00 0.00 58 1009.6
20260509193551 31 206 6.4 14.5 0.00 0.00 0.00 57 1009.7
20260509193053 31 265 4.8 12.9 0.00 0.00 0.00 57 1009.7
20260509192552 31 238 1.6 14.5 0.00 0.00 0.00 58 1009.8
20260509192055 31 212 4.8 14.5 0.00 0.00 0.00 57 1009.9
20260509191553 32 198 3.2 11.3 0.00 0.00 0.00 57 1010.0
20260509191053 31 150 3.2 11.3 0.00 0.00 0.00 59 1010.1
20260509190553 31 218 4.8 12.9 0.00 0.00 0.00 57 1010.0
20260509190057 31 210 1.6 14.5 0.00 0.00 0.00 56 1010.1
20260509185553 31 205 6.4 14.5 0.00 0.00 0.00 59 1010.0
20260509185052 32 207 1.6 11.3 0.00 0.00 0.00 58 1010.1
20260509184558 31 0 3.2 11.3 0.00 0.00 0.00 60 1010.1
20260509184053 31 198 1.6 16.1 0.00 0.00 0.00 58 1010.1
20260509183553 31 214 3.2 17.7 0.00 0.00 0.00 60 1010.2
20260509183103 31 198 4.8 17.7 0.00 0.00 0.00 59 1010.5
20260509182552 31 286 3.2 14.5 0.00 0.00 0.00 62 1010.4
20260509182052 31 227 4.8 14.5 0.00 0.00 0.00 59 1010.6
20260509181552 31 0 3.2 14.5 0.00 0.00 0.00 62 1010.7
20260509181053 30 182 4.8 14.5 0.00 0.00 0.00 61 1010.7
20260509180555 31 190 3.2 19.3 0.00 0.00 0.00 62 1010.8
20260509180056 30 216 8.0 19.3 0.00 0.00 0.00 63 1010.8
20260509175553 30 182 4.8 9.7 0.00 0.00 0.00 64 1010.8
20260509175055 30 202 1.6 11.3 0.00 0.00 0.00 66 1010.9
20260509174555 30 187 1.6 14.5 0.00 0.00 0.00 64 1010.9
20260509174053 30 188 4.8 14.5 0.00 0.00 0.00 65 1011.0
20260509173553 30 200 4.8 12.9 0.00 0.00 0.00 63 1011.0
20260509173058 30 171 3.2 11.3 0.00 0.00 0.00 67 1010.9
20260509172553 29 150 3.2 12.9 0.00 0.00 0.00 68 1011.0
20260509172053 29 211 4.8 12.9 0.00 0.00 0.00 69 1011.0
20260509171553 28 173 1.6 12.9 0.00 0.00 0.00 71 1011.1
20260509171052 28 229 4.8 14.5 0.00 0.00 0.00 70 1011.1
20260509170554 28 217 4.8 14.5 0.00 0.00 0.00 69 1011.0
20260509170057 28 182 1.6 14.5 0.00 0.00 0.00 71 1011.1
20260509165551 28 187 3.2 11.3 0.00 0.00 0.00 71 1011.1
20260509165051 28 189 3.2 8.0 0.00 0.00 0.00 71 1011.1
20260509164554 28 213 1.6 9.7 0.00 0.00 0.00 72 1011.0
20260509164053 27 203 0.0 9.7 0.00 0.00 0.00 75 1011.1
20260509163553 27 198 1.6 8.0 0.00 0.00 0.00 75 1011.1
20260509163101 27 48 1.6 6.4 0.00 0.00 0.00 77 1011.2
20260509162553 26 230 0.0 6.4 0.00 0.00 0.00 76 1011.3
20260509162053 27 306 1.6 6.4 0.00 0.00 0.00 75 1011.3
20260509161553 26 207 0.0 6.4 0.00 0.00 0.00 79 1011.2
20260509161052 26 210 3.2 6.4 0.00 0.00 0.00 79 1011.1
20260509160553 26 223 1.6 6.4 0.00 0.00 0.00 81 1011.1
20260509160052 25 0 1.6 14.5 0.00 0.00 0.00 83 1011.0
20260509155552 25 285 1.6 14.5 0.00 0.00 0.00 85 1011.1
20260509155052 25 206 4.8 19.3 0.00 0.00 0.00 88 1011.0
20260509154556 24 215 4.8 19.3 0.00 0.00 0.00 90 1011.1
20260509154053 24 200 6.4 19.3 0.00 0.00 0.00 93 1011.1
20260509153552 23 205 4.8 12.9 0.00 0.00 0.00 94 1011.5
20260509153056 23 196 1.6 9.7 0.00 0.00 0.00 95 1011.6
20260509152552 23 196 1.6 9.7 0.00 0.00 0.00 95 1011.5
20260509152053 22 0 1.6 6.4 0.00 0.00 0.00 96 1011.6
20260509151559 22 0 1.6 8.0 0.00 0.00 0.00 96 1011.8
20260509151052 22 165 0.0 8.0 0.00 0.00 0.00 96 1011.9
20260509150552 22 0 1.6 8.0 0.00 0.00 0.00 96 1011.8
20260509150052 22 0 0.0 3.2 0.00 0.00 0.00 96 1011.7
20260509145553 22 93 0.0 3.2 0.00 0.00 0.00 96 1011.8
20260509145054 22 0 0.0 3.2 0.00 0.00 0.00 96 1011.9
20260509144557 22 0 0.0 1.6 0.00 0.00 0.00 96 1011.8
20260509144052 22 0 0.0 1.6 0.00 0.00 0.00 96 1011.9
20260509143550 22 0 0.0 1.6 0.00 0.00 0.00 96 1011.8
20260509143059 22 93 0.0 4.8 0.00 0.00 0.00 96 1011.8
20260509142552 22 0 0.0 4.8 0.00 0.00 0.00 96 1011.9
20260509142052 21 93 0.0 4.8 0.00 0.00 0.00 96 1011.9
20260509141600 21 0 0.0 3.2 0.00 0.00 0.00 96 1011.7
20260509141054 21 0 0.0 3.2 0.00 0.00 0.00 96 1011.5
20260509140552 21 71 0.0 3.2 0.00 0.00 0.00 96 1011.3
20260509135552 21 71 0.0 4.8 0.00 0.00 0.00 96 1010.8
20260509135052 21 0 0.0 4.8 0.00 0.00 0.00 96 1010.6
20260509134551 21 0 1.6 4.8 0.00 0.00 0.00 96 1010.6
20260509134052 21 0 0.0 0.0 0.00 0.00 0.00 96 1010.6
20260509133552 21 0 0.0 0.0 0.00 0.00 0.00 96 1010.7
20260509133053 21 0 0.0 0.0 0.00 0.00 0.00 96 1010.9
20260509132554 21 0 0.0 0.0 0.00 0.00 0.00 96 1010.8
20260509132051 21 0 0.0 0.0 0.00 0.00 0.00 96 1010.9
20260509131554 21 0 0.0 0.0 0.00 0.00 0.00 96 1011.0
20260509131052 21 0 0.0 0.0 0.00 0.00 0.00 96 1011.1
20260509130552 21 0 0.0 3.2 0.00 0.00 0.00 96 1010.9
20260509130055 21 0 0.0 3.2 0.00 0.00 0.00 96 1010.8
20260509125552 21 72 0.0 3.2 0.00 0.00 0.00 96 1010.8
20260509125053 21 68 0.0 3.2 0.00 0.00 0.00 96 1010.8
20260509124554 21 0 0.0 4.8 0.00 0.00 0.00 96 1010.8
20260509124052 21 0 0.0 4.8 0.00 0.00 0.00 96 1011.0
20260509123555 21 0 0.0 8.0 0.00 0.00 0.00 96 1011.1
20260509123114 21 0 0.0 8.0 0.00 0.00 0.00 96 1010.9
20260509122553 21 75 0.0 8.0 0.00 0.00 0.00 96 1010.9
20260509122052 21 0 0.0 8.0 0.00 0.00 0.00 96 1010.8
20260509121558 21 55 1.6 8.0 0.00 0.00 0.00 96 1010.8
20260509121053 21 51 1.6 8.0 0.00 0.00 0.00 96 1010.9
20260509120551 21 0 1.6 6.4 0.00 0.00 0.00 96 1011.1
20260509120052 21 63 1.6 12.9 0.00 0.00 0.00 96 1011.1
20260509115552 21 35 3.2 14.5 0.00 0.00 0.00 95 1011.1
20260509115052 21 49 0.0 14.5 0.00 0.00 0.00 95 1011.1
20260509114551 21 0 1.6 14.5 0.00 0.00 0.00 95 1011.1
20260509114051 21 25 1.6 6.4 0.00 0.00 0.00 95 1010.9
20260509113554 21 0 0.0 6.4 0.00 0.00 0.00 95 1010.8
20260509113052 21 53 0.0 6.4 0.00 0.00 0.00 95 1010.8
20260509112549 21 0 0.0 6.4 0.00 0.00 0.00 95 1010.6
20260509112052 21 55 0.0 6.4 0.00 0.00 0.00 95 1010.4
20260509111555 21 0 0.0 0.0 0.00 0.00 0.00 95 1010.2
20260509111119 21 0 0.0 1.6 0.00 0.00 0.00 95 1010.4
20260509110553 21 0 0.0 3.2 0.00 0.00 0.00 95 1010.3
20260509110053 21 0 0.0 3.2 0.00 0.00 0.00 95 1010.2
20260509105553 21 0 0.0 3.2 0.00 0.00 0.00 95 1010.1
20260509105055 21 0 0.0 3.2 0.00 0.00 0.00 95 1010.3
20260509104553 21 0 0.0 3.2 0.00 0.00 0.00 95 1010.4
20260509104054 21 0 0.0 3.2 0.00 0.00 0.00 95 1010.3
20260509103551 21 0 0.0 4.8 0.00 0.00 0.00 95 1010.3
20260509103102 21 0 0.0 4.8 0.00 0.00 0.00 95 1010.2
20260509102554 21 63 0.0 3.2 0.00 0.00 0.00 95 1010.3
20260509102054 22 0 0.0 4.8 0.00 0.00 0.00 95 1010.4
20260509101553 22 0 0.0 4.8 0.00 0.00 0.00 95 1010.4
20260509101054 22 0 0.0 6.4 0.00 0.00 0.00 95 1010.2
20260509100554 22 68 1.6 6.4 0.00 0.00 0.00 95 1010.4
20260509100058 22 74 1.6 6.4 0.00 0.00 0.00 95 1010.2
20260509095554 22 0 0.0 6.4 0.00 0.00 0.00 95 1010.2
20260509095054 22 0 0.0 0.0 0.00 0.00 0.00 95 1009.8
20260509094555 22 0 0.0 0.0 0.00 0.00 0.00 95 1009.9
20260509094055 22 0 0.0 0.0 0.00 0.00 0.00 95 1009.6
20260509093554 22 0 0.0 0.0 0.00 0.00 0.00 95 1009.5
20260509093055 22 0 0.0 0.0 0.00 0.00 0.00 95 1009.3
20260509092557 22 0 0.0 0.0 0.00 0.00 0.00 95 1009.2
20260509092054 22 0 0.0 0.0 0.00 0.00 0.00 95 1009.1
20260509091554 22 0 0.0 0.0 0.00 0.00 0.00 95 1009.3
20260509091053 22 0 0.0 0.0 0.00 0.00 0.00 95 1009.4
20260509090554 22 0 0.0 0.0 0.00 0.00 0.00 94 1009.4
20260509090056 22 0 0.0 0.0 0.00 0.00 0.00 94 1009.5
20260509085554 22 0 0.0 0.0 0.00 0.00 0.00 94 1009.5
20260509085054 22 0 0.0 0.0 0.00 0.00 0.00 94 1009.5
20260509084557 22 0 0.0 0.0 0.00 0.00 0.00 94 1009.5
20260509084057 22 0 0.0 0.0 0.00 0.00 0.00 94 1009.5
20260509083553 22 0 0.0 1.6 0.00 0.00 0.00 94 1009.5